| time (UTC) | temp F | wind direction | speed MPH | gust MPH | rain 1hr in | rain 24hr in | rain mn in | humidity % | barometer mb |
| 20260506113051 | 75 | 98 | 2.0 | 7.0 | 0.00 | 0.00 | 0.00 | 94 | 1011.9 |
| 20260506111552 | 74 | 160 | 1.0 | 5.0 | 0.00 | 0.00 | 0.00 | 93 | 1011.7 |
| 20260506110048 | 74 | 166 | 1.0 | 5.0 | 0.00 | 0.00 | 0.00 | 93 | 1011.7 |
| 20260506104556 | 74 | 140 | 0.0 | 4.0 | 0.00 | 0.00 | 0.00 | 93 | 1011.7 |
| 20260506103047 | 74 | 0 | 0.0 | 2.0 | 0.00 | 0.00 | 0.00 | 93 | 1011.9 |
| 20260506101549 | 74 | 0 | 0.0 | 1.0 | 0.00 | 0.00 | 0.00 | 93 | 1012.0 |
| 20260506100053 | 74 | 0 | 0.0 | 4.0 | 0.00 | 0.00 | 0.00 | 93 | 1012.0 |
| 20260506094546 | 74 | 0 | 0.0 | 0.0 | 0.00 | 0.00 | 0.00 | 93 | 1012.1 |
| 20260506093048 | 74 | 0 | 0.0 | 0.0 | 0.00 | 0.00 | 0.00 | 93 | 1012.0 |
| 20260506091551 | 74 | 0 | 0.0 | 0.0 | 0.00 | 0.00 | 0.00 | 93 | 1012.0 |
| 20260506090051 | 74 | 0 | 0.0 | 0.0 | 0.00 | 0.00 | 0.00 | 92 | 1012.1 |
| 20260506084554 | 74 | 0 | 0.0 | 0.0 | 0.00 | 0.00 | 0.00 | 92 | 1012.0 |
| 20260506083053 | 74 | 0 | 0.0 | 0.0 | 0.00 | 0.00 | 0.00 | 92 | 1012.1 |
| 20260506081554 | 74 | 0 | 0.0 | 2.0 | 0.00 | 0.00 | 0.00 | 93 | 1012.2 |
| 20260506073053 | 74 | 156 | 0.0 | 2.0 | 0.00 | 0.00 | 0.00 | 92 | 1012.5 |
| 20260506071551 | 74 | 0 | 0.0 | 1.0 | 0.00 | 0.00 | 0.00 | 92 | 1012.3 |
| 20260506061555 | 74 | 0 | 1.0 | 6.0 | 0.00 | 0.00 | 0.00 | 92 | 1012.4 |
| 20260506044543 | 74 | 0 | 1.0 | 6.0 | 0.00 | 0.00 | 0.00 | 91 | 1012.5 |
| 20260506043049 | 74 | 153 | 2.0 | 10.0 | 0.00 | 0.00 | 0.00 | 91 | 1012.5 |
| 20260506041548 | 74 | 155 | 2.0 | 9.0 | 0.00 | 0.00 | 0.00 | 91 | 1012.5 |
| 20260506040054 | 74 | 163 | 2.0 | 9.0 | 0.00 | 0.00 | 0.00 | 91 | 1012.4 |
| 20260506034546 | 74 | 98 | 2.0 | 10.0 | 0.00 | 0.00 | 0.00 | 91 | 1012.4 |
| 20260506033049 | 75 | 173 | 2.0 | 11.0 | 0.00 | 0.00 | 0.00 | 91 | 1012.5 |
| 20260506031548 | 75 | 155 | 2.0 | 10.0 | 0.00 | 0.00 | 0.00 | 91 | 1012.5 |
| 20260506030046 | 74 | 171 | 2.0 | 9.0 | 0.00 | 0.00 | 0.00 | 91 | 1012.2 |
| 20260506024549 | 74 | 0 | 0.0 | 6.0 | 0.00 | 0.00 | 0.00 | 90 | 1012.3 |
| 20260506023056 | 74 | 0 | 0.0 | 0.0 | 0.00 | 0.00 | 0.00 | 89 | 1012.0 |
| 20260506021555 | 74 | 0 | 0.0 | 1.0 | 0.00 | 0.00 | 0.00 | 89 | 1011.8 |
| 20260506020048 | 74 | 0 | 0.0 | 5.0 | 0.00 | 0.00 | 0.00 | 89 | 1011.5 |
| 20260506014546 | 74 | 0 | 0.0 | 1.0 | 0.00 | 0.00 | 0.00 | 88 | 1011.5 |
| 20260506013049 | 75 | 0 | 0.0 | 5.0 | 0.00 | 0.00 | 0.00 | 88 | 1011.5 |
| 20260506011551 | 75 | 0 | 0.0 | 7.0 | 0.00 | 0.00 | 0.00 | 88 | 1011.3 |
| 20260506010100 | 75 | 0 | 1.0 | 7.0 | 0.00 | 0.00 | 0.00 | 88 | 1011.4 |
| 20260506004551 | 76 | 150 | 3.0 | 7.0 | 0.00 | 0.00 | 0.00 | 87 | 1011.3 |
| 20260506003053 | 76 | 165 | 3.0 | 11.0 | 0.00 | 0.00 | 0.00 | 87 | 1011.2 |
| 20260506001546 | 77 | 161 | 4.0 | 9.0 | 0.00 | 0.00 | 0.00 | 87 | 1011.1 |
| 20260506000049 | 77 | 158 | 3.0 | 14.0 | 0.00 | 0.00 | 0.00 | 86 | 1011.1 |
| 20260505234606 | 77 | 148 | 4.0 | 13.0 | 0.00 | 0.00 | 0.00 | 86 | 1011.2 |
| 20260505233048 | 78 | 170 | 7.0 | 13.0 | 0.00 | 0.00 | 0.00 | 86 | 1011.1 |
| 20260505231541 | 78 | 135 | 6.0 | 12.0 | 0.00 | 0.00 | 0.00 | 86 | 1011.1 |
| 20260505230050 | 78 | 158 | 5.0 | 13.0 | 0.00 | 0.00 | 0.00 | 86 | 1011.2 |
| 20260505224550 | 78 | 152 | 6.0 | 15.0 | 0.00 | 0.00 | 0.00 | 86 | 1011.4 |
| 20260505223047 | 78 | 149 | 3.0 | 12.0 | 0.00 | 0.00 | 0.00 | 86 | 1011.5 |
| 20260505221545 | 78 | 0 | 0.0 | 9.0 | 0.00 | 0.00 | 0.00 | 86 | 1011.6 |
| 20260505220048 | 79 | 162 | 4.0 | 10.0 | 0.00 | 0.00 | 0.00 | 85 | 1011.6 |
| 20260505214603 | 79 | 174 | 6.0 | 13.0 | 0.00 | 0.00 | 0.00 | 85 | 1011.7 |
| 20260505213059 | 79 | 144 | 6.0 | 11.0 | 0.00 | 0.00 | 0.00 | 85 | 1011.8 |
| 20260505211544 | 79 | 187 | 4.0 | 13.0 | 0.00 | 0.00 | 0.00 | 84 | 1011.9 |
| 20260505210058 | 80 | 140 | 6.0 | 15.0 | 0.00 | 0.00 | 0.00 | 84 | 1012.0 |
| 20260505204558 | 80 | 163 | 2.0 | 11.0 | 0.00 | 0.00 | 0.00 | 84 | 1011.9 |
| 20260505203054 | 79 | 0 | 3.0 | 10.0 | 0.00 | 0.00 | 0.00 | 84 | 1012.1 |
| 20260505201554 | 79 | 149 | 5.0 | 17.0 | 0.00 | 0.00 | 0.00 | 83 | 1012.2 |
| 20260505200100 | 80 | 172 | 4.0 | 11.0 | 0.00 | 0.00 | 0.00 | 84 | 1012.3 |
| 20260505194554 | 79 | 0 | 2.0 | 12.0 | 0.00 | 0.00 | 0.00 | 84 | 1012.4 |
| 20260505193051 | 79 | 0 | 2.0 | 9.0 | 0.00 | 0.00 | 0.00 | 84 | 1012.5 |
| 20260505191544 | 79 | 0 | 0.0 | 10.0 | 0.00 | 0.00 | 0.00 | 85 | 1012.5 |
| 20260505190050 | 79 | 0 | 0.0 | 9.0 | 0.00 | 0.00 | 0.00 | 84 | 1012.7 |
| 20260505184548 | 79 | 0 | 0.0 | 10.0 | 0.00 | 0.00 | 0.00 | 83 | 1012.7 |
| 20260505183046 | 79 | 0 | 0.0 | 10.0 | 0.00 | 0.00 | 0.00 | 83 | 1012.8 |
| 20260505181546 | 80 | 170 | 4.0 | 10.0 | 0.00 | 0.00 | 0.00 | 83 | 1012.7 |
| 20260505180103 | 80 | 157 | 5.0 | 16.0 | 0.00 | 0.00 | 0.00 | 82 | 1012.8 |
| 20260505174600 | 80 | 172 | 0.0 | 10.0 | 0.00 | 0.00 | 0.00 | 83 | 1012.6 |
| 20260505173047 | 80 | 192 | 2.0 | 12.0 | 0.00 | 0.00 | 0.00 | 83 | 1012.8 |
| 20260505171546 | 80 | 179 | 1.0 | 15.0 | 0.00 | 0.00 | 0.00 | 84 | 1012.8 |
| 20260505170047 | 79 | 178 | 0.0 | 12.0 | 0.00 | 0.00 | 0.00 | 84 | 1013.2 |
| 20260505164550 | 79 | 0 | 1.0 | 8.0 | 0.00 | 0.00 | 0.00 | 84 | 1013.2 |
| 20260505163052 | 78 | 0 | 3.0 | 11.0 | 0.00 | 0.00 | 0.00 | 84 | 1013.2 |
| 20260505161548 | 77 | 164 | 2.0 | 14.0 | 0.00 | 0.00 | 0.00 | 84 | 1013.3 |
| 20260505153044 | 76 | 0 | 0.0 | 14.0 | 0.00 | 0.00 | 0.00 | 85 | 1013.3 |
| 20260505151548 | 76 | 0 | 0.0 | 15.0 | 0.00 | 0.00 | 0.00 | 85 | 1013.4 |
| 20260505124611 | 67 | 0 | 0.0 | 0.0 | 0.00 | 0.00 | 0.00 | 90 | 1013.1 |
| 20260505123106 | 66 | 0 | 0.0 | 0.0 | 0.00 | 0.00 | 0.00 | 89 | 1012.8 |
| 20260505121549 | 65 | 0 | 0.0 | 0.0 | 0.00 | 0.00 | 0.00 | 89 | 1012.7 |
| 20260505120049 | 64 | 0 | 0.0 | 0.0 | 0.00 | 0.00 | 0.00 | 89 | 1012.6 |
| 20260505114549 | 64 | 0 | 0.0 | 0.0 | 0.00 | 0.00 | 0.00 | 89 | 1012.6 |